Location: Navalespino
(40.5894°N, 4.2660°W)
Time: 06:18:10
(UTC+00:00)

Sich 1 Rocket - Pass Details

Date: 18 April 2024
Orbit: 615 x 648 km, 82.5° (Epoch: 22 May)

Event Time Altitude Azimuth Distance (km) Brightness Sun altitude
Exits shadow 20:41:35 10° 190° (S) 1,994 5.9 -18.3°
Reaches altitude 10° 20:41:37 10° 190° (S) 1,979 5.9 -18.3°
Maximum altitude 20:46:01 81° 278° (W) 637 3.6 -19.0°
Drops below altitude 10° 20:50:29 10° 6° (N) 2,014 6.6 -19.7°
Sets 20:52:44 0° 7° (N) 2,932 7.4 -20.1°
